Time,TemperatureF,DewpointF,PressureIn,WindDirection,WindDirectionDegrees,WindSpeedMPH,WindSpeedGustMPH,Humidity,HourlyPrecipIn,Conditions,Clouds,dailyrainin,SoftwareType,DateUTC
2013-07-16 00:00:00,68.0,65.0,-100.00,North,-999,-999.0,-999.0,89,0.01,,,-99.99,,2013-07-16 07:00:00,
2013-07-16 00:32:00,68.0,65.0,-100.00,North,-999,-999.0,-999.0,89,0.01,,,-99.99,,2013-07-16 07:32:00,
2013-07-16 00:52:00,68.0,65.0,-100.00,North,-999,-999.0,-999.0,89,0.01,,,-99.99,,2013-07-16 07:52:00,
2013-07-16 01:00:00,67.0,64.0,-100.00,North,-999,-999.0,-999.0,91,0.00,,,-99.99,,2013-07-16 08:00:00,
2013-07-16 01:32:00,67.0,64.0,-100.00,North,-999,-999.0,-999.0,91,0.00,,,-99.99,,2013-07-16 08:32:00,
2013-07-16 01:52:00,67.0,64.0,-100.00,North,-999,-999.0,-999.0,91,0.00,,,-99.99,,2013-07-16 08:52:00,
2013-07-16 02:00:00,67.0,65.0,-100.00,North,-999,-999.0,-999.0,92,0.00,,,-99.99,,2013-07-16 09:00:00,
2013-07-16 02:22:00,67.0,65.0,-100.00,North,-999,-999.0,-999.0,92,0.00,,,-99.99,,2013-07-16 09:22:00,
2013-07-16 02:32:00,67.0,65.0,-100.00,North,-999,-999.0,-999.0,92,0.00,,,-99.99,,2013-07-16 09:32:00,
2013-07-16 02:52:00,67.0,65.0,-100.00,North,-999,-999.0,-999.0,92,0.00,,,-99.99,,2013-07-16 09:52:00,
2013-07-16 03:00:00,67.0,64.0,-100.00,North,-999,-999.0,-999.0,91,0.00,,,-99.99,,2013-07-16 10:00:00,
2013-07-16 03:32:00,67.0,64.0,-100.00,North,-999,-999.0,-999.0,91,0.00,,,-99.99,,2013-07-16 10:32:00,
2013-07-16 03:52:00,67.0,64.0,-100.00,North,-999,-999.0,-999.0,91,0.00,,,-99.99,,2013-07-16 10:52:00,
2013-07-16 04:00:00,67.0,65.0,-100.00,North,-999,-999.0,-999.0,92,0.00,,,-99.99,,2013-07-16 11:00:00,
2013-07-16 04:22:00,67.0,65.0,-100.00,North,-999,-999.0,-999.0,92,0.00,,,-99.99,,2013-07-16 11:22:00,
2013-07-16 04:32:00,67.0,65.0,-100.00,North,-999,-999.0,-999.0,92,0.00,,,-99.99,,2013-07-16 11:32:00,
2013-07-16 04:53:00,67.0,65.0,-100.00,North,-999,-999.0,-999.0,92,0.00,,,-99.99,,2013-07-16 11:53:00,
2013-07-16 05:22:00,67.0,65.0,-100.00,North,-999,-999.0,-999.0,93,0.00,,,-99.99,,2013-07-16 12:22:00,
2013-07-16 05:32:00,67.0,65.0,-100.00,North,-999,-999.0,-999.0,93,0.00,,,-99.99,,2013-07-16 12:32:00,
2013-07-16 05:53:00,67.0,65.0,-100.00,North,-999,-999.0,-999.0,93,0.00,,,-99.99,,2013-07-16 12:53:00,
2013-07-16 06:00:00,67.0,65.0,-100.00,North,-999,-999.0,-999.0,93,0.00,,,-99.99,,2013-07-16 13:00:00,
2013-07-16 06:32:00,67.0,65.0,-100.00,North,-999,-999.0,-999.0,93,0.00,,,-99.99,,2013-07-16 13:32:00,
2013-07-16 06:42:00,67.0,65.0,-100.00,North,-999,-999.0,-999.0,93,0.00,,,-99.99,,2013-07-16 13:42:00,
2013-07-16 06:52:00,67.0,65.0,-100.00,North,-999,-999.0,-999.0,93,0.00,,,-99.99,,2013-07-16 13:52:00,
2013-07-16 07:00:00,68.0,66.0,-100.00,North,-999,-999.0,-999.0,92,0.00,,,-99.99,,2013-07-16 14:00:00,
2013-07-16 07:22:00,68.0,66.0,-100.00,North,-999,-999.0,-999.0,92,0.00,,,-99.99,,2013-07-16 14:22:00,
2013-07-16 07:32:00,68.0,66.0,-100.00,North,-999,-999.0,-999.0,92,0.00,,,-99.99,,2013-07-16 14:32:00,
2013-07-16 07:52:00,68.0,66.0,-100.00,North,-999,-999.0,-999.0,92,0.00,,,-99.99,,2013-07-16 14:52:00,
2013-07-16 08:00:00,70.0,66.0,-100.00,North,-999,-999.0,-999.0,86,0.00,,,-99.99,,2013-07-16 15:00:00,
2013-07-16 08:32:00,70.0,66.0,-100.00,North,-999,-999.0,-999.0,86,0.00,,,-99.99,,2013-07-16 15:32:00,
2013-07-16 08:53:00,70.0,66.0,-100.00,North,-999,-999.0,-999.0,86,0.00,,,-99.99,,2013-07-16 15:53:00,
2013-07-16 09:00:00,72.0,65.0,-100.00,North,-999,-999.0,-999.0,80,0.00,,,-99.99,,2013-07-16 16:00:00,
2013-07-16 09:32:00,72.0,65.0,-100.00,North,-999,-999.0,-999.0,80,0.00,,,-99.99,,2013-07-16 16:32:00,
2013-07-16 09:52:00,72.0,65.0,-100.00,North,-999,-999.0,-999.0,80,0.00,,,-99.99,,2013-07-16 16:52:00,
2013-07-16 10:00:00,74.0,66.0,-100.00,North,-999,-999.0,-999.0,76,0.00,,,-99.99,,2013-07-16 17:00:00,
2013-07-16 10:33:00,74.0,66.0,-100.00,North,-999,-999.0,-999.0,76,0.00,,,-99.99,,2013-07-16 17:33:00,
2013-07-16 10:53:00,74.0,66.0,-100.00,North,-999,-999.0,-999.0,76,0.00,,,-99.99,,2013-07-16 17:53:00,
2013-07-16 11:00:00,77.0,65.0,-100.00,North,-999,-999.0,-999.0,66,0.00,,,-99.99,,2013-07-16 18:00:00,
2013-07-16 11:33:00,77.0,65.0,-100.00,North,-999,-999.0,-999.0,66,0.00,,,-99.99,,2013-07-16 18:33:00,
2013-07-16 11:52:00,77.0,65.0,-100.00,North,-999,-999.0,-999.0,66,0.00,,,-99.99,,2013-07-16 18:52:00,
2013-07-16 12:00:00,78.0,65.0,-100.00,North,-999,-999.0,-999.0,61,0.00,,,-99.99,,2013-07-16 19:00:00,
2013-07-16 12:32:00,78.0,65.0,-100.00,North,-999,-999.0,-999.0,61,0.00,,,-99.99,,2013-07-16 19:32:00,
2013-07-16 12:52:00,78.0,65.0,-100.00,North,-999,-999.0,-999.0,61,0.00,,,-99.99,,2013-07-16 19:52:00,
2013-07-16 13:00:00,83.0,61.0,-100.00,North,-999,-999.0,-999.0,47,0.00,,,-99.99,,2013-07-16 20:00:00,
2013-07-16 13:32:00,83.0,61.0,-100.00,North,-999,-999.0,-999.0,47,0.00,,,-99.99,,2013-07-16 20:32:00,
2013-07-16 13:52:00,83.0,61.0,-100.00,North,-999,-999.0,-999.0,47,0.00,,,-99.99,,2013-07-16 20:52:00,
2013-07-16 14:00:00,81.0,63.0,-100.00,North,-999,-999.0,-999.0,54,0.00,,,-99.99,,2013-07-16 21:00:00,
2013-07-16 14:43:00,81.0,63.0,-100.00,North,-999,-999.0,-999.0,54,0.00,,,-99.99,,2013-07-16 21:43:00,
2013-07-16 15:00:00,74.0,63.0,-100.00,North,-999,-999.0,-999.0,68,0.00,,,-99.99,,2013-07-16 22:00:00,
2013-07-16 15:33:00,74.0,63.0,-100.00,North,-999,-999.0,-999.0,68,0.00,,,-99.99,,2013-07-16 22:33:00,
2013-07-16 15:43:00,74.0,63.0,-100.00,North,-999,-999.0,-999.0,68,0.00,,,-99.99,,2013-07-16 22:43:00,
2013-07-16 15:52:00,74.0,63.0,-100.00,North,-999,-999.0,-999.0,68,0.00,,,-99.99,,2013-07-16 22:52:00,
2013-07-16 16:00:00,67.0,64.0,-100.00,North,-999,-999.0,-999.0,90,0.07,,,-99.99,,2013-07-16 23:00:00,
2013-07-16 16:32:00,67.0,64.0,-100.00,North,-999,-999.0,-999.0,90,0.07,,,-99.99,,2013-07-16 23:32:00,
2013-07-16 16:43:00,67.0,64.0,-100.00,North,-999,-999.0,-999.0,90,0.07,,,-99.99,,2013-07-16 23:43:00,
2013-07-16 16:52:00,67.0,64.0,-100.00,North,-999,-999.0,-999.0,90,0.07,,,-99.99,,2013-07-16 23:52:00,
2013-07-16 17:00:00,67.0,65.0,-100.00,North,-999,-999.0,-999.0,91,0.08,,,-99.99,,2013-07-17 00:00:00,
2013-07-16 17:33:00,67.0,65.0,-100.00,North,-999,-999.0,-999.0,91,0.08,,,-99.99,,2013-07-17 00:33:00,
2013-07-16 17:42:00,67.0,65.0,-100.00,North,-999,-999.0,-999.0,91,0.08,,,-99.99,,2013-07-17 00:42:00,
2013-07-16 17:52:00,67.0,65.0,-100.00,North,-999,-999.0,-999.0,91,0.08,,,-99.99,,2013-07-17 00:52:00,
2013-07-16 18:00:00,67.0,65.0,-100.00,North,-999,-999.0,-999.0,91,0.01,,,-99.99,,2013-07-17 01:00:00,
2013-07-16 18:32:00,67.0,65.0,-100.00,North,-999,-999.0,-999.0,91,0.01,,,-99.99,,2013-07-17 01:32:00,
2013-07-16 18:43:00,67.0,65.0,-100.00,North,-999,-999.0,-999.0,91,0.01,,,-99.99,,2013-07-17 01:43:00,
2013-07-16 18:53:00,67.0,65.0,-100.00,North,-999,-999.0,-999.0,91,0.01,,,-99.99,,2013-07-17 01:53:00,
2013-07-16 19:00:00,67.0,65.0,-100.00,North,-999,-999.0,-999.0,91,0.00,,,-99.99,,2013-07-17 02:00:00,
2013-07-16 19:32:00,67.0,65.0,-100.00,North,-999,-999.0,-999.0,91,0.00,,,-99.99,,2013-07-17 02:32:00,
2013-07-16 19:43:00,67.0,65.0,-100.00,North,-999,-999.0,-999.0,91,0.00,,,-99.99,,2013-07-17 02:43:00,
2013-07-16 19:53:00,67.0,65.0,-100.00,North,-999,-999.0,-999.0,91,0.00,,,-99.99,,2013-07-17 02:53:00,
2013-07-16 20:00:00,66.0,64.0,-100.00,North,-999,-999.0,-999.0,92,0.00,,,-99.99,,2013-07-17 03:00:00,
2013-07-16 20:32:00,66.0,64.0,-100.00,North,-999,-999.0,-999.0,92,0.00,,,-99.99,,2013-07-17 03:32:00,
2013-07-16 20:53:00,66.0,64.0,-100.00,North,-999,-999.0,-999.0,92,0.00,,,-99.99,,2013-07-17 03:53:00,
2013-07-16 21:00:00,66.0,64.0,-100.00,North,-999,-999.0,-999.0,92,0.00,,,-99.99,,2013-07-17 04:00:00,
2013-07-16 21:22:00,66.0,64.0,-100.00,North,-999,-999.0,-999.0,92,0.00,,,-99.99,,2013-07-17 04:22:00,
2013-07-16 21:32:00,66.0,64.0,-100.00,North,-999,-999.0,-999.0,92,0.00,,,-99.99,,2013-07-17 04:32:00,
2013-07-16 21:53:00,66.0,64.0,-100.00,North,-999,-999.0,-999.0,92,0.00,,,-99.99,,2013-07-17 04:53:00,
2013-07-16 22:00:00,66.0,64.0,-100.00,North,-999,-999.0,-999.0,93,0.00,,,-99.99,,2013-07-17 05:00:00,
2013-07-16 22:32:00,66.0,64.0,-100.00,North,-999,-999.0,-999.0,93,0.00,,,-99.99,,2013-07-17 05:32:00,
2013-07-16 22:43:00,66.0,64.0,-100.00,North,-999,-999.0,-999.0,93,0.00,,,-99.99,,2013-07-17 05:43:00,
2013-07-16 22:52:00,66.0,64.0,-100.00,North,-999,-999.0,-999.0,93,0.00,,,-99.99,,2013-07-17 05:52:00,
2013-07-16 23:00:00,66.0,64.0,-100.00,North,-999,-999.0,-999.0,93,0.00,,,-99.99,,2013-07-17 06:00:00,
2013-07-16 23:33:00,66.0,64.0,-100.00,North,-999,-999.0,-999.0,93,0.00,,,-99.99,,2013-07-17 06:33:00,
2013-07-16 23:43:00,66.0,64.0,-100.00,North,-999,-999.0,-999.0,93,0.00,,,-99.99,,2013-07-17 06:43:00,
2013-07-16 23:52:00,66.0,64.0,-100.00,North,-999,-999.0,-999.0,93,0.00,,,-99.99,,2013-07-17 06:52:00,